Flag for Germany Weather past 2 weeks in Zerbst/Anhalt, Saxony-Anhalt, Germany

Now
64 °F

Clear.


Feels Like: 64 °F
Forecast: 63 / 79 °F
Wind: 2 mph from North

Location: Magdeburg

Current Time: Jul 23, 2014 at 5:29:26 AM

Latest Report: Jul 23, 2014 at 5:00 AM


Visibility: 16 mi

Pressure: 30.10 "Hg

Humidity: 85%

Dew point: 59 °F

Location of Zerbst/AnhaltLocation

Historic Weather in Zerbst/Anhalt — Graph

°F

Zerbst/Anhalt temperature yesterday

Maximum temperature yesterday: 86 °F (at 5:00 PM)
Minimum temperature yesterday: 62 °F (at 6:00 AM)
Average temperature yesterday: 74 °F

Past Weeks' High & Low Weather Summary

 TemperatureHumidityPressure
High93 °F (Jul 20, 3:00 PM)98% (Jul 8, 8:00 PM)30.20 "Hg (Jul 8, 8:00 PM)
Low54 °F (Jul 12, 4:00 AM)20% (Jul 19, 6:00 PM)29.60 "Hg (Jul 9, 3:00 PM)
Average71 °F69%29.92 "Hg
* Reported Jul 8 4:00 AM — Jul 23 4:00 AM, Zerbst/Anhalt, Weather by CustomWeather, © 2014

Note: Actual official high and low records may vary slightly from our data, if they occured in-between our weather recording intervals... More about our weather records

Advertising

Zerbst/Anhalt weather history for previous 24 hours

 ConditionsComfort  
Time TempWeatherWind HumidityBarometerVisibility
4:00 AM
Jul 23
65 °FPassing clouds.2 mph80%30.09 "Hg18 mi
3:00 AM67 °FPassing clouds.3 mph73%30.09 "Hg19 mi
2:00 AM69 °FPassing clouds.3 mph68%30.09 "Hg22 mi
7:00 PM
Jul 22
84 °FScattered clouds.5 mph34%30.01 "Hg25 mi
6:00 PM85 °FScattered clouds.5 mph33%30.00 "Hg16 mi
5:00 PM86 °FScattered clouds.5 mph31%30.00 "Hg31 mi
4:00 PM84 °FPartly sunny.5 mph33%30.01 "Hg31 mi
3:00 PM85 °FPartly sunny.3 mph36%30.01 "Hg28 mi
2:00 PM83 °FScattered clouds.5 mph43%30.02 "Hg28 mi
1:00 PM81 °FPartly sunny.5 mph49%30.02 "Hg28 mi
12:00 PM78 °FPartly sunny.3 mph58%30.02 "Hg25 mi
10:00 AM71 °FPartly sunny.3 mph71%30.02 "Hg22 mi
9:00 AM67 °FPartly sunny.2 mph80%30.01 "Hg16 mi
8:00 AM65 °FLow clouds.3 mph85%30.01 "Hg11 mi
7:00 AM64 °FLow clouds.2 mph89%29.99 "Hg10 mi
6:00 AM62 °FPartly sunny.2 mph91%29.98 "Hg10 mi
Weather by CustomWeather, © 2014

See weather overviewHow to use our weather pages